﻿_id,日時,10分間移動積算雨量(mm),1時間移動積算雨量(mm),日雨量(mm),累計雨量(mm)
1,2022-10-10T00:00:00,0,1.5,27,27
2,2022-10-10T00:01:00,0,1.5,0,27
3,2022-10-10T00:02:00,0,1.5,0,27
4,2022-10-10T00:03:00,0,1,0,27
5,2022-10-10T00:04:00,0,1,0,27
6,2022-10-10T00:05:00,0,1,0,27
7,2022-10-10T00:06:00,0,1,0,27
8,2022-10-10T00:07:00,0,1,0,27
9,2022-10-10T00:08:00,0,1,0,27
10,2022-10-10T00:09:00,0,1,0,27
11,2022-10-10T00:10:00,0,1,0,27
12,2022-10-10T00:11:00,0,1,0,27
13,2022-10-10T00:12:00,0,1,0,27
14,2022-10-10T00:13:00,0,1,0,27
15,2022-10-10T00:14:00,0,1,0,27
16,2022-10-10T00:15:00,0,1,0,27
17,2022-10-10T00:16:00,0,1,0,27
18,2022-10-10T00:17:00,0,1,0,27
19,2022-10-10T00:18:00,0,1,0,27
20,2022-10-10T00:19:00,0,1,0,27
21,2022-10-10T00:20:00,0,1,0,27
22,2022-10-10T00:21:00,0,1,0,27
23,2022-10-10T00:22:00,0,0.5,0,27
24,2022-10-10T00:23:00,0,0.5,0,27
25,2022-10-10T00:24:00,0,0.5,0,27
26,2022-10-10T00:25:00,0,0.5,0,27
27,2022-10-10T00:26:00,0,0.5,0,27
28,2022-10-10T00:27:00,0,0.5,0,27
29,2022-10-10T00:28:00,0,0.5,0,27
30,2022-10-10T00:29:00,0,0.5,0,27
31,2022-10-10T00:30:00,0,0.5,0,27
32,2022-10-10T00:31:00,0,0.5,0,27
33,2022-10-10T00:32:00,0,0.5,0,27
34,2022-10-10T00:33:00,0,0.5,0,27
35,2022-10-10T00:34:00,0,0.5,0,27
36,2022-10-10T00:35:00,0,0.5,0,27
37,2022-10-10T00:36:00,0,0.5,0,27
38,2022-10-10T00:37:00,0,0.5,0,27
39,2022-10-10T00:38:00,0,0.5,0,27
40,2022-10-10T00:39:00,0,0.5,0,27
41,2022-10-10T00:40:00,0,0.5,0,27
42,2022-10-10T00:41:00,0,0,0,27
43,2022-10-10T00:42:00,0,0,0,27
44,2022-10-10T00:43:00,0,0,0,27
45,2022-10-10T00:44:00,0,0,0,27
46,2022-10-10T00:45:00,0,0,0,27
47,2022-10-10T00:46:00,0,0,0,27
48,2022-10-10T00:47:00,0,0,0,27
49,2022-10-10T00:48:00,0,0,0,27
50,2022-10-10T00:49:00,0,0,0,27
51,2022-10-10T00:50:00,0,0,0,27
52,2022-10-10T00:51:00,0,0,0,27
53,2022-10-10T00:52:00,0,0,0,27
54,2022-10-10T00:53:00,0,0,0,27
55,2022-10-10T00:54:00,0,0,0,27
56,2022-10-10T00:55:00,0,0,0,27
57,2022-10-10T00:56:00,0,0,0,27
58,2022-10-10T00:57:00,0,0,0,27
59,2022-10-10T00:58:00,0,0,0,27
60,2022-10-10T00:59:00,0,0,0,27
61,2022-10-10T01:00:00,0,0,0,27
62,2022-10-10T01:01:00,0,0,0,27
63,2022-10-10T01:02:00,0,0,0,27
64,2022-10-10T01:03:00,0,0,0,27
65,2022-10-10T01:04:00,0.5,0.5,0.5,27.5
66,2022-10-10T01:05:00,0.5,0.5,0.5,27.5
67,2022-10-10T01:06:00,0.5,0.5,0.5,27.5
68,2022-10-10T01:07:00,0.5,0.5,0.5,27.5
69,2022-10-10T01:08:00,0.5,0.5,0.5,27.5
70,2022-10-10T01:09:00,0.5,0.5,0.5,27.5
71,2022-10-10T01:10:00,0.5,0.5,0.5,27.5
72,2022-10-10T01:11:00,0.5,0.5,0.5,27.5
73,2022-10-10T01:12:00,0.5,0.5,0.5,27.5
74,2022-10-10T01:13:00,0.5,0.5,0.5,27.5
75,2022-10-10T01:14:00,0,0.5,0.5,27.5
76,2022-10-10T01:15:00,0,0.5,0.5,27.5
77,2022-10-10T01:16:00,0,0.5,0.5,27.5
78,2022-10-10T01:17:00,0,0.5,0.5,27.5
79,2022-10-10T01:18:00,0,0.5,0.5,27.5
80,2022-10-10T01:19:00,0,0.5,0.5,27.5
81,2022-10-10T01:20:00,0,0.5,0.5,27.5
82,2022-10-10T01:21:00,0,0.5,0.5,27.5
83,2022-10-10T01:22:00,0,0.5,0.5,27.5
84,2022-10-10T01:23:00,0,0.5,0.5,27.5
85,2022-10-10T01:24:00,0,0.5,0.5,27.5
86,2022-10-10T01:25:00,0,0.5,0.5,27.5
87,2022-10-10T01:26:00,0,0.5,0.5,27.5
88,2022-10-10T01:27:00,0,0.5,0.5,27.5
89,2022-10-10T01:28:00,0,0.5,0.5,27.5
90,2022-10-10T01:29:00,0,0.5,0.5,27.5
91,2022-10-10T01:30:00,0,0.5,0.5,27.5
92,2022-10-10T01:31:00,0,0.5,0.5,27.5
93,2022-10-10T01:32:00,0,0.5,0.5,27.5
94,2022-10-10T01:33:00,0,0.5,0.5,27.5
95,2022-10-10T01:34:00,0,0.5,0.5,27.5
96,2022-10-10T01:35:00,0,0.5,0.5,27.5
97,2022-10-10T01:36:00,0,0.5,0.5,27.5
98,2022-10-10T01:37:00,0,0.5,0.5,27.5
99,2022-10-10T01:38:00,0,0.5,0.5,27.5
100,2022-10-10T01:39:00,0,0.5,0.5,27.5
101,2022-10-10T01:40:00,0,0.5,0.5,27.5
102,2022-10-10T01:41:00,0,0.5,0.5,27.5
103,2022-10-10T01:42:00,0,0.5,0.5,27.5
104,2022-10-10T01:43:00,0,0.5,0.5,27.5
105,2022-10-10T01:44:00,0,0.5,0.5,27.5
106,2022-10-10T01:45:00,0,0.5,0.5,27.5
107,2022-10-10T01:46:00,0,0.5,0.5,27.5
108,2022-10-10T01:47:00,0,0.5,0.5,27.5
109,2022-10-10T01:48:00,0,0.5,0.5,27.5
110,2022-10-10T01:49:00,0,0.5,0.5,27.5
111,2022-10-10T01:50:00,0,0.5,0.5,27.5
112,2022-10-10T01:51:00,0,0.5,0.5,27.5
113,2022-10-10T01:52:00,0,0.5,0.5,27.5
114,2022-10-10T01:53:00,0,0.5,0.5,27.5
115,2022-10-10T01:54:00,0,0.5,0.5,27.5
116,2022-10-10T01:55:00,0,0.5,0.5,27.5
117,2022-10-10T01:56:00,0,0.5,0.5,27.5
118,2022-10-10T01:57:00,0,0.5,0.5,27.5
119,2022-10-10T01:58:00,0,0.5,0.5,27.5
120,2022-10-10T01:59:00,0.5,1,1,28
121,2022-10-10T02:00:00,0.5,1,1,28
122,2022-10-10T02:01:00,0.5,1,1,28
123,2022-10-10T02:02:00,0.5,1,1,28
124,2022-10-10T02:03:00,0.5,1,1,28
125,2022-10-10T02:04:00,0.5,0.5,1,28
126,2022-10-10T02:05:00,0.5,0.5,1,28
127,2022-10-10T02:06:00,0.5,0.5,1,28
128,2022-10-10T02:07:00,0.5,0.5,1,28
129,2022-10-10T02:08:00,0.5,0.5,1,28
130,2022-10-10T02:09:00,0,0.5,1,28
131,2022-10-10T02:10:00,0,0.5,1,28
132,2022-10-10T02:11:00,0,0.5,1,28
133,2022-10-10T02:12:00,0,0.5,1,28
134,2022-10-10T02:13:00,0,0.5,1,28
135,2022-10-10T02:14:00,0,0.5,1,28
136,2022-10-10T02:15:00,0.5,1,1.5,28.5
137,2022-10-10T02:16:00,0.5,1,1.5,28.5
138,2022-10-10T02:17:00,0.5,1,1.5,28.5
139,2022-10-10T02:18:00,0.5,1,1.5,28.5
140,2022-10-10T02:19:00,0.5,1,1.5,28.5
141,2022-10-10T02:20:00,0.5,1,1.5,28.5
142,2022-10-10T02:21:00,0.5,1,1.5,28.5
143,2022-10-10T02:22:00,1,1.5,2,29
144,2022-10-10T02:23:00,1,1.5,2,29
145,2022-10-10T02:24:00,1,1.5,2,29
146,2022-10-10T02:25:00,0.5,1.5,2,29
147,2022-10-10T02:26:00,0.5,1.5,2,29
148,2022-10-10T02:27:00,0.5,1.5,2,29
149,2022-10-10T02:28:00,0.5,1.5,2,29
150,2022-10-10T02:29:00,0.5,1.5,2,29
151,2022-10-10T02:30:00,0.5,1.5,2,29
152,2022-10-10T02:31:00,0.5,1.5,2,29
153,2022-10-10T02:32:00,1,2.5,3,30
154,2022-10-10T02:33:00,1,2.5,3,30
155,2022-10-10T02:34:00,1.5,3,3.5,30.5
156,2022-10-10T02:35:00,1.5,3,3.5,30.5
157,2022-10-10T02:36:00,1.5,3,3.5,30.5
158,2022-10-10T02:37:00,1.5,3,3.5,30.5
159,2022-10-10T02:38:00,2,3.5,4,31
160,2022-10-10T02:39:00,2,3.5,4,31
161,2022-10-10T02:40:00,2,3.5,4,31
162,2022-10-10T02:41:00,2,3.5,4,31
163,2022-10-10T02:42:00,1,3.5,4,31
164,2022-10-10T02:43:00,1,3.5,4,31
165,2022-10-10T02:44:00,0.5,3.5,4,31
166,2022-10-10T02:45:00,0.5,3.5,4,31
167,2022-10-10T02:46:00,0.5,3.5,4,31
168,2022-10-10T02:47:00,0.5,3.5,4,31
169,2022-10-10T02:48:00,0,3.5,4,31
170,2022-10-10T02:49:00,0,3.5,4,31
171,2022-10-10T02:50:00,0,3.5,4,31
172,2022-10-10T02:51:00,0,3.5,4,31
173,2022-10-10T02:52:00,0,3.5,4,31
174,2022-10-10T02:53:00,0,3.5,4,31
175,2022-10-10T02:54:00,0,3.5,4,31
176,2022-10-10T02:55:00,0,3.5,4,31
177,2022-10-10T02:56:00,0,3.5,4,31
178,2022-10-10T02:57:00,0,3.5,4,31
179,2022-10-10T02:58:00,0,3.5,4,31
180,2022-10-10T02:59:00,0,3,4,31
181,2022-10-10T03:00:00,0,3,4,31
182,2022-10-10T03:01:00,0,3,4,31
183,2022-10-10T03:02:00,0,3,4,31
184,2022-10-10T03:03:00,0,3,4,31
185,2022-10-10T03:04:00,0,3,4,31
186,2022-10-10T03:05:00,0.5,3.5,4.5,31.5
187,2022-10-10T03:06:00,0.5,3.5,4.5,31.5
188,2022-10-10T03:07:00,0.5,3.5,4.5,31.5
189,2022-10-10T03:08:00,0.5,3.5,4.5,31.5
190,2022-10-10T03:09:00,0.5,3.5,4.5,31.5
191,2022-10-10T03:10:00,0.5,3.5,4.5,31.5
192,2022-10-10T03:11:00,0.5,3.5,4.5,31.5
193,2022-10-10T03:12:00,0.5,3.5,4.5,31.5
194,2022-10-10T03:13:00,0.5,3.5,4.5,31.5
195,2022-10-10T03:14:00,0.5,3.5,4.5,31.5
196,2022-10-10T03:15:00,0,3,4.5,31.5
197,2022-10-10T03:16:00,0,3,4.5,31.5
198,2022-10-10T03:17:00,0,3,4.5,31.5
199,2022-10-10T03:18:00,0.5,3.5,5,32
200,2022-10-10T03:19:00,0.5,3.5,5,32
201,2022-10-10T03:20:00,1,4,5.5,32.5
202,2022-10-10T03:21:00,1,4,5.5,32.5
203,2022-10-10T03:22:00,1,3.5,5.5,32.5
204,2022-10-10T03:23:00,1,3.5,5.5,32.5
205,2022-10-10T03:24:00,1,3.5,5.5,32.5
206,2022-10-10T03:25:00,1,3.5,5.5,32.5
207,2022-10-10T03:26:00,1,3.5,5.5,32.5
208,2022-10-10T03:27:00,1,3.5,5.5,32.5
209,2022-10-10T03:28:00,0.5,3.5,5.5,32.5
210,2022-10-10T03:29:00,0.5,3.5,5.5,32.5
211,2022-10-10T03:30:00,0,3.5,5.5,32.5
212,2022-10-10T03:31:00,0,3.5,5.5,32.5
213,2022-10-10T03:32:00,0,2.5,5.5,32.5
214,2022-10-10T03:33:00,0,2.5,5.5,32.5
215,2022-10-10T03:34:00,0,2,5.5,32.5
216,2022-10-10T03:35:00,0.5,2.5,6,33
217,2022-10-10T03:36:00,0.5,2.5,6,33
218,2022-10-10T03:37:00,0.5,2.5,6,33
219,2022-10-10T03:38:00,0.5,2,6,33
220,2022-10-10T03:39:00,0.5,2,6,33
221,2022-10-10T03:40:00,0.5,2,6,33
222,2022-10-10T03:41:00,0.5,2,6,33
223,2022-10-10T03:42:00,0.5,2,6,33
224,2022-10-10T03:43:00,0.5,2,6,33
225,2022-10-10T03:44:00,1,2.5,6.5,33.5
226,2022-10-10T03:45:00,0.5,2.5,6.5,33.5
227,2022-10-10T03:46:00,0.5,2.5,6.5,33.5
228,2022-10-10T03:47:00,0.5,2.5,6.5,33.5
229,2022-10-10T03:48:00,0.5,2.5,6.5,33.5
230,2022-10-10T03:49:00,0.5,2.5,6.5,33.5
231,2022-10-10T03:50:00,0.5,2.5,6.5,33.5
232,2022-10-10T03:51:00,0.5,2.5,6.5,33.5
233,2022-10-10T03:52:00,0.5,2.5,6.5,33.5
234,2022-10-10T03:53:00,0.5,2.5,6.5,33.5
235,2022-10-10T03:54:00,0,2.5,6.5,33.5
236,2022-10-10T03:55:00,0,2.5,6.5,33.5
237,2022-10-10T03:56:00,0,2.5,6.5,33.5
238,2022-10-10T03:57:00,0,2.5,6.5,33.5
239,2022-10-10T03:58:00,0,2.5,6.5,33.5
240,2022-10-10T03:59:00,0,2.5,6.5,33.5
241,2022-10-10T04:00:00,0,2.5,6.5,33.5
242,2022-10-10T04:01:00,0,2.5,6.5,33.5
243,2022-10-10T04:02:00,0,2.5,6.5,33.5
244,2022-10-10T04:03:00,0.5,3,7,34
245,2022-10-10T04:04:00,0.5,3,7,34
246,2022-10-10T04:05:00,0.5,2.5,7,34
247,2022-10-10T04:06:00,0.5,2.5,7,34
248,2022-10-10T04:07:00,1,3,7.5,34.5
249,2022-10-10T04:08:00,1,3,7.5,34.5
250,2022-10-10T04:09:00,1,3,7.5,34.5
251,2022-10-10T04:10:00,1,3,7.5,34.5
252,2022-10-10T04:11:00,1.5,3.5,8,35
253,2022-10-10T04:12:00,1.5,3.5,8,35
254,2022-10-10T04:13:00,1,3.5,8,35
255,2022-10-10T04:14:00,1,3.5,8,35
256,2022-10-10T04:15:00,1,3.5,8,35
257,2022-10-10T04:16:00,1,3.5,8,35
258,2022-10-10T04:17:00,0.5,3.5,8,35
259,2022-10-10T04:18:00,0.5,3,8,35
260,2022-10-10T04:19:00,1,3.5,8.5,35.5
261,2022-10-10T04:20:00,1,3,8.5,35.5
262,2022-10-10T04:21:00,0.5,3,8.5,35.5
263,2022-10-10T04:22:00,0.5,3,8.5,35.5
264,2022-10-10T04:23:00,1,3.5,9,36
265,2022-10-10T04:24:00,1.5,4,9.5,36.5
266,2022-10-10T04:25:00,1.5,4,9.5,36.5
267,2022-10-10T04:26:00,2.5,5,10.5,37.5
268,2022-10-10T04:27:00,3,5.5,11,38
269,2022-10-10T04:28:00,3,5.5,11,38
270,2022-10-10T04:29:00,3,6,11.5,38.5
271,2022-10-10T04:30:00,4,7,12.5,39.5
272,2022-10-10T04:31:00,4.5,7.5,13,40
273,2022-10-10T04:32:00,5,8,13.5,40.5
274,2022-10-10T04:33:00,4.5,8,13.5,40.5
275,2022-10-10T04:34:00,4.5,8.5,14,41
276,2022-10-10T04:35:00,4.5,8,14,41
277,2022-10-10T04:36:00,3.5,8,14,41
278,2022-10-10T04:37:00,3.5,8.5,14.5,41.5
279,2022-10-10T04:38:00,3.5,8.5,14.5,41.5
280,2022-10-10T04:39:00,3.5,9,15,42
281,2022-10-10T04:40:00,2.5,9,15,42
282,2022-10-10T04:41:00,2,9,15,42
283,2022-10-10T04:42:00,1.5,9,15,42
284,2022-10-10T04:43:00,1.5,9,15,42
285,2022-10-10T04:44:00,1,8.5,15,42
286,2022-10-10T04:45:00,1,8.5,15,42
287,2022-10-10T04:46:00,1.5,9,15.5,42.5
288,2022-10-10T04:47:00,1,9,15.5,42.5
289,2022-10-10T04:48:00,1,9,15.5,42.5
290,2022-10-10T04:49:00,0.5,9,15.5,42.5
291,2022-10-10T04:50:00,0.5,9,15.5,42.5
292,2022-10-10T04:51:00,0.5,9,15.5,42.5
293,2022-10-10T04:52:00,0.5,9,15.5,42.5
294,2022-10-10T04:53:00,0.5,9,15.5,42.5
295,2022-10-10T04:54:00,0.5,9,15.5,42.5
296,2022-10-10T04:55:00,,,,
297,2022-10-10T04:56:00,0,9,15.5,42.5
298,2022-10-10T04:57:00,0,9,15.5,42.5
299,2022-10-10T04:58:00,0,9,15.5,42.5
300,2022-10-10T04:59:00,0,9,15.5,42.5
301,2022-10-10T05:00:00,0,9,15.5,42.5
302,2022-10-10T05:01:00,0.5,9.5,16,43
303,2022-10-10T05:02:00,0.5,9.5,16,43
304,2022-10-10T05:03:00,0.5,9,16,43
305,2022-10-10T05:04:00,0.5,9,16,43
306,2022-10-10T05:05:00,0.5,9,16,43
307,2022-10-10T05:06:00,0.5,9,16,43
308,2022-10-10T05:07:00,0.5,8.5,16,43
309,2022-10-10T05:08:00,0.5,8.5,16,43
310,2022-10-10T05:09:00,0.5,8.5,16,43
311,2022-10-10T05:10:00,0.5,8.5,16,43
312,2022-10-10T05:11:00,0,8,16,43
313,2022-10-10T05:12:00,0,8,16,43
314,2022-10-10T05:13:00,0,8,16,43
315,2022-10-10T05:14:00,0,8,16,43
316,2022-10-10T05:15:00,0,8,16,43
317,2022-10-10T05:16:00,0,8,16,43
318,2022-10-10T05:17:00,0,8,16,43
319,2022-10-10T05:18:00,0,8,16,43
320,2022-10-10T05:19:00,0,7.5,16,43
321,2022-10-10T05:20:00,0,7.5,16,43
322,2022-10-10T05:21:00,0,7.5,16,43
323,2022-10-10T05:22:00,0,7.5,16,43
324,2022-10-10T05:23:00,,,,
325,2022-10-10T05:24:00,0,6.5,16,43
326,2022-10-10T05:25:00,0,6.5,16,43
327,2022-10-10T05:26:00,0,5.5,16,43
328,2022-10-10T05:27:00,0,5,16,43
329,2022-10-10T05:28:00,0,5,16,43
330,2022-10-10T05:29:00,0,4.5,16,43
331,2022-10-10T05:30:00,0,3.5,16,43
332,2022-10-10T05:31:00,0,3,16,43
333,2022-10-10T05:32:00,0,2.5,16,43
334,2022-10-10T05:33:00,0,2.5,16,43
335,2022-10-10T05:34:00,0,2,16,43
336,2022-10-10T05:35:00,0,2,16,43
337,2022-10-10T05:36:00,0,2,16,43
338,2022-10-10T05:37:00,0,1.5,16,43
339,2022-10-10T05:38:00,0,1.5,16,43
340,2022-10-10T05:39:00,0,1,16,43
341,2022-10-10T05:40:00,0,1,16,43
342,2022-10-10T05:41:00,0,1,16,43
343,2022-10-10T05:42:00,0,1,16,43
344,2022-10-10T05:43:00,0,1,16,43
345,2022-10-10T05:44:00,0,1,16,43
346,2022-10-10T05:45:00,0,1,16,43
347,2022-10-10T05:46:00,0,0.5,16,43
348,2022-10-10T05:47:00,0,0.5,16,43
349,2022-10-10T05:48:00,0,0.5,16,43
350,2022-10-10T05:49:00,0,0.5,16,43
351,2022-10-10T05:50:00,0,0.5,16,43
352,2022-10-10T05:51:00,0,0.5,16,43
353,2022-10-10T05:52:00,0,0.5,16,43
354,2022-10-10T05:53:00,0,0.5,16,43
355,2022-10-10T05:54:00,0,0.5,16,43
356,2022-10-10T05:55:00,0,0.5,16,43
357,2022-10-10T05:56:00,0,0.5,16,43
358,2022-10-10T05:57:00,0,0.5,16,43
359,2022-10-10T05:58:00,0,0.5,16,43
360,2022-10-10T05:59:00,0,0.5,16,43
361,2022-10-10T06:00:00,0,0.5,16,43
362,2022-10-10T06:01:00,0,0,16,43
363,2022-10-10T06:02:00,0,0,16,43
364,2022-10-10T06:03:00,0,0,16,43
365,2022-10-10T06:04:00,0,0,16,43
366,2022-10-10T06:05:00,0,0,16,43
367,2022-10-10T06:06:00,0,0,16,43
368,2022-10-10T06:07:00,0,0,16,43
369,2022-10-10T06:08:00,0,0,16,43
370,2022-10-10T06:09:00,0,0,16,43
371,2022-10-10T06:10:00,0,0,16,43
372,2022-10-10T06:11:00,0,0,16,43
373,2022-10-10T06:12:00,0,0,16,43
374,2022-10-10T06:13:00,0,0,16,43
375,2022-10-10T06:14:00,0,0,16,43
376,2022-10-10T06:15:00,0,0,16,43
377,2022-10-10T06:16:00,0,0,16,43
378,2022-10-10T06:17:00,0,0,16,43
379,2022-10-10T06:18:00,0,0,16,43
380,2022-10-10T06:19:00,0,0,16,43
381,2022-10-10T06:20:00,0,0,16,43
382,2022-10-10T06:21:00,0,0,16,43
383,2022-10-10T06:22:00,0,0,16,43
384,2022-10-10T06:23:00,0,0,16,43
385,2022-10-10T06:24:00,0,0,16,43
386,2022-10-10T06:25:00,0,0,16,43
387,2022-10-10T06:26:00,0,0,16,43
388,2022-10-10T06:27:00,0,0,16,43
389,2022-10-10T06:28:00,0,0,16,43
390,2022-10-10T06:29:00,0,0,16,43
391,2022-10-10T06:30:00,0,0,16,43
392,2022-10-10T06:31:00,0,0,16,43
393,2022-10-10T06:32:00,0,0,16,43
394,2022-10-10T06:33:00,0,0,16,43
395,2022-10-10T06:34:00,0,0,16,43
396,2022-10-10T06:35:00,0,0,16,43
397,2022-10-10T06:36:00,0,0,16,43
398,2022-10-10T06:37:00,0,0,16,43
399,2022-10-10T06:38:00,0,0,16,43
400,2022-10-10T06:39:00,0,0,16,43
401,2022-10-10T06:40:00,0,0,16,43
402,2022-10-10T06:41:00,0,0,16,43
403,2022-10-10T06:42:00,0,0,16,43
404,2022-10-10T06:43:00,0,0,16,43
405,2022-10-10T06:44:00,0,0,16,43
406,2022-10-10T06:45:00,0,0,16,43
407,2022-10-10T06:46:00,0,0,16,43
408,2022-10-10T06:47:00,0,0,16,43
409,2022-10-10T06:48:00,0,0,16,43
410,2022-10-10T06:49:00,0,0,16,43
411,2022-10-10T06:50:00,0,0,16,43
412,2022-10-10T06:51:00,0,0,16,43
413,2022-10-10T06:52:00,0,0,16,43
414,2022-10-10T06:53:00,0,0,16,43
415,2022-10-10T06:54:00,0,0,16,43
416,2022-10-10T06:55:00,0,0,16,43
417,2022-10-10T06:56:00,0,0,16,43
418,2022-10-10T06:57:00,0,0,16,43
419,2022-10-10T06:58:00,0,0,16,43
420,2022-10-10T06:59:00,0,0,16,43
421,2022-10-10T07:00:00,0,0,16,43
422,2022-10-10T07:01:00,0,0,16,43
423,2022-10-10T07:02:00,0,0,16,43
424,2022-10-10T07:03:00,0,0,16,43
425,2022-10-10T07:04:00,0,0,16,43
426,2022-10-10T07:05:00,0,0,16,43
427,2022-10-10T07:06:00,0,0,16,43
428,2022-10-10T07:07:00,0,0,16,43
429,2022-10-10T07:08:00,0,0,16,43
430,2022-10-10T07:09:00,0,0,16,43
431,2022-10-10T07:10:00,0,0,16,43
432,2022-10-10T07:11:00,0,0,16,43
433,2022-10-10T07:12:00,0,0,16,43
434,2022-10-10T07:13:00,0,0,16,43
435,2022-10-10T07:14:00,0,0,16,43
436,2022-10-10T07:15:00,0,0,16,43
437,2022-10-10T07:16:00,0,0,16,43
438,2022-10-10T07:17:00,0,0,16,43
439,2022-10-10T07:18:00,0,0,16,43
440,2022-10-10T07:19:00,0,0,16,43
441,2022-10-10T07:20:00,0,0,16,43
442,2022-10-10T07:21:00,0,0,16,43
443,2022-10-10T07:22:00,0,0,16,43
444,2022-10-10T07:23:00,0,0,16,43
445,2022-10-10T07:24:00,0,0,16,43
446,2022-10-10T07:25:00,0,0,16,43
447,2022-10-10T07:26:00,0,0,16,43
448,2022-10-10T07:27:00,0,0,16,43
449,2022-10-10T07:28:00,0,0,16,43
450,2022-10-10T07:29:00,0,0,16,43
451,2022-10-10T07:30:00,0,0,16,43
452,2022-10-10T07:31:00,0,0,16,43
453,2022-10-10T07:32:00,0,0,16,43
454,2022-10-10T07:33:00,0,0,16,43
455,2022-10-10T07:34:00,0,0,16,43
456,2022-10-10T07:35:00,0,0,16,43
457,2022-10-10T07:36:00,0,0,16,43
458,2022-10-10T07:37:00,0,0,16,43
459,2022-10-10T07:38:00,0,0,16,43
460,2022-10-10T07:39:00,0,0,16,43
461,2022-10-10T07:40:00,0,0,16,43
462,2022-10-10T07:41:00,0,0,16,43
463,2022-10-10T07:42:00,0,0,16,43
464,2022-10-10T07:43:00,0,0,16,43
465,2022-10-10T07:44:00,0,0,16,43
466,2022-10-10T07:45:00,0,0,16,43
467,2022-10-10T07:46:00,0,0,16,43
468,2022-10-10T07:47:00,0,0,16,43
469,2022-10-10T07:48:00,0,0,16,43
470,2022-10-10T07:49:00,0,0,16,43
471,2022-10-10T07:50:00,0,0,16,43
472,2022-10-10T07:51:00,0,0,16,43
473,2022-10-10T07:52:00,0,0,16,43
474,2022-10-10T07:53:00,0,0,16,43
475,2022-10-10T07:54:00,0,0,16,43
476,2022-10-10T07:55:00,0,0,16,43
477,2022-10-10T07:56:00,0,0,16,43
478,2022-10-10T07:57:00,0,0,16,43
479,2022-10-10T07:58:00,0,0,16,43
480,2022-10-10T07:59:00,0,0,16,43
481,2022-10-10T08:00:00,0,0,16,43
482,2022-10-10T08:01:00,0,0,16,43
483,2022-10-10T08:02:00,0,0,16,43
484,2022-10-10T08:03:00,0,0,16,43
485,2022-10-10T08:04:00,0,0,16,43
486,2022-10-10T08:05:00,0,0,16,43
487,2022-10-10T08:06:00,0,0,16,43
488,2022-10-10T08:07:00,0,0,16,43
489,2022-10-10T08:08:00,0,0,16,43
490,2022-10-10T08:09:00,0,0,16,43
491,2022-10-10T08:10:00,0,0,16,43
492,2022-10-10T08:11:00,0,0,16,43
493,2022-10-10T08:12:00,0,0,16,43
494,2022-10-10T08:13:00,0,0,16,43
495,2022-10-10T08:14:00,0,0,16,43
496,2022-10-10T08:15:00,0,0,16,43
497,2022-10-10T08:16:00,0,0,16,43
498,2022-10-10T08:17:00,0,0,16,43
499,2022-10-10T08:18:00,0,0,16,43
500,2022-10-10T08:19:00,0,0,16,43
501,2022-10-10T08:20:00,0,0,16,43
502,2022-10-10T08:21:00,0,0,16,43
503,2022-10-10T08:22:00,0,0,16,43
504,2022-10-10T08:23:00,0,0,16,43
505,2022-10-10T08:24:00,0,0,16,43
506,2022-10-10T08:25:00,0,0,16,43
507,2022-10-10T08:26:00,0,0,16,43
508,2022-10-10T08:27:00,0,0,16,43
509,2022-10-10T08:28:00,0,0,16,43
510,2022-10-10T08:29:00,0,0,16,43
511,2022-10-10T08:30:00,0,0,16,43
512,2022-10-10T08:31:00,0,0,16,43
513,2022-10-10T08:32:00,0,0,16,43
514,2022-10-10T08:33:00,0,0,16,43
515,2022-10-10T08:34:00,0,0,16,43
516,2022-10-10T08:35:00,0,0,16,43
517,2022-10-10T08:36:00,0,0,16,43
518,2022-10-10T08:37:00,0,0,16,43
519,2022-10-10T08:38:00,0,0,16,43
520,2022-10-10T08:39:00,0,0,16,43
521,2022-10-10T08:40:00,0,0,16,43
522,2022-10-10T08:41:00,0,0,16,43
523,2022-10-10T08:42:00,0,0,16,43
524,2022-10-10T08:43:00,0,0,16,43
525,2022-10-10T08:44:00,0,0,16,43
526,2022-10-10T08:45:00,0,0,16,43
527,2022-10-10T08:46:00,0,0,16,43
528,2022-10-10T08:47:00,0,0,16,43
529,2022-10-10T08:48:00,0,0,16,43
530,2022-10-10T08:49:00,0,0,16,43
531,2022-10-10T08:50:00,0,0,16,43
532,2022-10-10T08:51:00,0,0,16,43
533,2022-10-10T08:52:00,0,0,16,43
534,2022-10-10T08:53:00,0,0,16,43
535,2022-10-10T08:54:00,0,0,16,43
536,2022-10-10T08:55:00,0,0,16,43
537,2022-10-10T08:56:00,0,0,16,43
538,2022-10-10T08:57:00,0,0,16,43
539,2022-10-10T08:58:00,0,0,16,43
540,2022-10-10T08:59:00,0,0,16,43
541,2022-10-10T09:00:00,0,0,16,43
542,2022-10-10T09:01:00,0,0,16,43
543,2022-10-10T09:02:00,0,0,16,43
544,2022-10-10T09:03:00,0,0,16,43
545,2022-10-10T09:04:00,0,0,16,43
546,2022-10-10T09:05:00,0,0,16,43
547,2022-10-10T09:06:00,0,0,16,43
548,2022-10-10T09:07:00,0,0,16,43
549,2022-10-10T09:08:00,0,0,16,43
550,2022-10-10T09:09:00,0,0,16,43
551,2022-10-10T09:10:00,0,0,16,43
552,2022-10-10T09:11:00,0,0,16,43
553,2022-10-10T09:12:00,0,0,16,43
554,2022-10-10T09:13:00,0,0,16,43
555,2022-10-10T09:14:00,0,0,16,43
556,2022-10-10T09:15:00,0,0,16,43
557,2022-10-10T09:16:00,0,0,16,43
558,2022-10-10T09:17:00,0,0,16,43
559,2022-10-10T09:18:00,0,0,16,43
560,2022-10-10T09:19:00,0,0,16,43
561,2022-10-10T09:20:00,0,0,16,43
562,2022-10-10T09:21:00,0,0,16,43
563,2022-10-10T09:22:00,0,0,16,43
564,2022-10-10T09:23:00,0,0,16,43
565,2022-10-10T09:24:00,0,0,16,43
566,2022-10-10T09:25:00,0,0,16,43
567,2022-10-10T09:26:00,0,0,16,43
568,2022-10-10T09:27:00,0,0,16,43
569,2022-10-10T09:28:00,0,0,16,43
570,2022-10-10T09:29:00,0,0,16,43
571,2022-10-10T09:30:00,0,0,16,43
572,2022-10-10T09:31:00,0,0,16,43
573,2022-10-10T09:32:00,0,0,16,43
574,2022-10-10T09:33:00,0,0,16,43
575,2022-10-10T09:34:00,0,0,16,43
576,2022-10-10T09:35:00,0,0,16,43
577,2022-10-10T09:36:00,0,0,16,43
578,2022-10-10T09:37:00,0,0,16,43
579,2022-10-10T09:38:00,0,0,16,43
580,2022-10-10T09:39:00,0,0,16,43
581,2022-10-10T09:40:00,0,0,16,43
582,2022-10-10T09:41:00,0,0,16,43
583,2022-10-10T09:42:00,0,0,16,43
584,2022-10-10T09:43:00,0,0,16,43
585,2022-10-10T09:44:00,0,0,16,43
586,2022-10-10T09:45:00,0,0,16,43
587,2022-10-10T09:46:00,0,0,16,43
588,2022-10-10T09:47:00,0,0,16,43
589,2022-10-10T09:48:00,0,0,16,43
590,2022-10-10T09:49:00,0,0,16,43
591,2022-10-10T09:50:00,0,0,16,43
592,2022-10-10T09:51:00,0,0,16,43
593,2022-10-10T09:52:00,0,0,16,43
594,2022-10-10T09:53:00,0,0,16,43
595,2022-10-10T09:54:00,0,0,16,43
596,2022-10-10T09:55:00,0,0,16,43
597,2022-10-10T09:56:00,0,0,16,43
598,2022-10-10T09:57:00,0,0,16,43
599,2022-10-10T09:58:00,0,0,16,43
600,2022-10-10T09:59:00,0,0,16,43
601,2022-10-10T10:00:00,0,0,16,43
602,2022-10-10T10:01:00,0,0,16,43
603,2022-10-10T10:02:00,0,0,16,43
604,2022-10-10T10:03:00,0,0,16,43
605,2022-10-10T10:04:00,0,0,16,43
606,2022-10-10T10:05:00,0,0,16,43
607,2022-10-10T10:06:00,0,0,16,43
608,2022-10-10T10:07:00,0,0,16,43
609,2022-10-10T10:08:00,0,0,16,43
610,2022-10-10T10:09:00,0,0,16,43
611,2022-10-10T10:10:00,0,0,16,43
612,2022-10-10T10:11:00,0,0,16,43
613,2022-10-10T10:12:00,0,0,16,43
614,2022-10-10T10:13:00,0,0,16,43
615,2022-10-10T10:14:00,0,0,16,43
616,2022-10-10T10:15:00,0,0,16,43
617,2022-10-10T10:16:00,0,0,16,43
618,2022-10-10T10:17:00,0,0,16,43
619,2022-10-10T10:18:00,0,0,16,43
620,2022-10-10T10:19:00,0,0,16,43
621,2022-10-10T10:20:00,0,0,16,43
622,2022-10-10T10:21:00,0,0,16,43
623,2022-10-10T10:22:00,0,0,16,43
624,2022-10-10T10:23:00,0,0,16,43
625,2022-10-10T10:24:00,0,0,16,43
626,2022-10-10T10:25:00,0,0,16,43
627,2022-10-10T10:26:00,0,0,16,43
628,2022-10-10T10:27:00,0,0,16,43
629,2022-10-10T10:28:00,0,0,16,43
630,2022-10-10T10:29:00,0,0,16,43
631,2022-10-10T10:30:00,0,0,16,43
632,2022-10-10T10:31:00,0,0,16,43
633,2022-10-10T10:32:00,0,0,16,43
634,2022-10-10T10:33:00,0,0,16,43
635,2022-10-10T10:34:00,0,0,16,43
636,2022-10-10T10:35:00,0,0,16,43
637,2022-10-10T10:36:00,0,0,16,43
638,2022-10-10T10:37:00,0,0,16,43
639,2022-10-10T10:38:00,0,0,16,43
640,2022-10-10T10:39:00,0,0,16,43
641,2022-10-10T10:40:00,0,0,16,43
642,2022-10-10T10:41:00,0,0,16,43
643,2022-10-10T10:42:00,0,0,16,43
644,2022-10-10T10:43:00,0,0,16,43
645,2022-10-10T10:44:00,0,0,16,43
646,2022-10-10T10:45:00,0,0,16,43
647,2022-10-10T10:46:00,0,0,16,43
648,2022-10-10T10:47:00,0,0,16,43
649,2022-10-10T10:48:00,0,0,16,43
650,2022-10-10T10:49:00,0,0,16,43
651,2022-10-10T10:50:00,0,0,16,43
652,2022-10-10T10:51:00,0,0,16,43
653,2022-10-10T10:52:00,0,0,16,43
654,2022-10-10T10:53:00,0,0,16,43
655,2022-10-10T10:54:00,0,0,16,43
656,2022-10-10T10:55:00,0,0,16,43
657,2022-10-10T10:56:00,0,0,16,43
658,2022-10-10T10:57:00,0,0,16,43
659,2022-10-10T10:58:00,0,0,16,43
660,2022-10-10T10:59:00,0,0,16,43
661,2022-10-10T11:00:00,0,0,16,43
662,2022-10-10T11:01:00,0,0,16,43
663,2022-10-10T11:02:00,0,0,16,43
664,2022-10-10T11:03:00,0,0,16,43
665,2022-10-10T11:04:00,0,0,16,43
666,2022-10-10T11:05:00,0,0,16,43
667,2022-10-10T11:06:00,0,0,16,43
668,2022-10-10T11:07:00,0,0,16,43
669,2022-10-10T11:08:00,0,0,16,43
670,2022-10-10T11:09:00,0,0,16,43
671,2022-10-10T11:10:00,0,0,16,43
672,2022-10-10T11:11:00,0,0,16,43
673,2022-10-10T11:12:00,0,0,16,43
674,2022-10-10T11:13:00,0,0,16,43
675,2022-10-10T11:14:00,0,0,16,43
676,2022-10-10T11:15:00,0,0,16,43
677,2022-10-10T11:16:00,0,0,16,43
678,2022-10-10T11:17:00,0,0,16,43